{"data":{"norad_id":41589,"epoch":"2026-05-24T22:03:00.063072Z","epoch_age_seconds":77918,"freshness":"FRESH","line1":"1 41589U 16038B   26144.91875073 -.00000015  00000+0  00000+0 0  9997","line2":"2 41589   0.0091 148.4920 0000051 259.1369  48.6439  1.00270666 36436","mean_motion":1.00270666,"eccentricity":5.1e-6,"inclination_deg":0.0091,"raan_deg":148.492,"arg_perigee_deg":259.1369,"mean_anomaly_deg":48.6439,"bstar":0,"rev_number":3643,"period_min":1436.1129305753,"perigee_km":35786.693618696,"apogee_km":35787.123702162,"semimajor_km":42165.045660429,"source":"CELESTRAK","updated_at":"2026-05-25T13:38:24.341942Z"}}